Regional Weather Roundup
Issued by NWS

Home | Current Version | Previous Version | Text Only | Print | Product List | Glossary Off
Versions: 1 2 3 4 5 6 7 8 9 10 11 12 13 14 15 16 17 18 19 20 21 22 23 24 25 26 27 28 29 30 31 32 33 34 35 36 37 38 39 40 41 42 43 44 45 46 47 48 49 50

000
ASUS43 KMKX 271000
RWRWI

WISCONSIN REGIONAL WEATHER ROUNDUP
NATIONAL WEATHER SERVICE MILWAUKEE/SULLIVAN WI
500 AM CDT WED AUG 27 2014

NOTE: "FAIR" INDICATES FEW OR NO CLOUDS BELOW 12,000 FEET WITH NO
SIGNIFICANT WEATHER AND/OR OBSTRUCTIONS TO VISIBILITY.

WIZ001-002-006>008-014>016-023>028-271100-
NORTHWEST WISCONSIN

CITY           SKY/WX    TMP DP  RH WIND       PRES   REMARKS
SUPERIOR ARPT  CLOUDY    54  53  97 CALM      30.20R
ASHLAND        MOCLDY    54  51  90 W5        30.20R
HAYWARD        MOCLDY    56  54  93 CALM      30.20S
SIREN          CLOUDY    56  55  95 CALM      30.21S
RICE LAKE      MOCLDY    57  54  90 CALM      30.21S
LADYSMITH      CLOUDY    58  55  90 NW5       30.21R
EAU CLAIRE     MOCLDY    58  58 100 CALM      30.17F
MENOMONIE      CLOUDY    60  58  92 CALM      30.18F
NEW RICHMOND   MOCLDY    58  57  97 CALM      30.19F
OSCEOLA        CLOUDY    58  58  98 CALM      30.22S
$$

WIZ003>005-009-010-017-018-271100-
NORTH CENTRAL WISCONSIN

CITY           SKY/WX    TMP DP  RH WIND       PRES   REMARKS
WOODRUFF       CLOUDY    57  55  95 CALM      30.17F
RHINELANDER    CLOUDY    55  54  96 CALM      30.18S
EAGLE RIVER    LGT RAIN  53  53 100 CALM      30.17S
LAND O LAKES   CLOUDY    52  52  99 CALM      30.19S
PHILLIPS       CLOUDY    54  54  99 CALM      30.18R
TOMAHAWK       CLOUDY    54  53  95 CALM      30.18S
MEDFORD        CLOUDY    55  55  97 CALM      30.18S
MERRILL        CLOUDY    56  56 100 CALM      30.17F
$$

WIZ029-030-035-036-043>047-271100-
CENTRAL WISCONSIN

CITY           SKY/WX    TMP DP  RH WIND       PRES   REMARKS
WAUSAU         LGT RAIN  58  57  97 CALM      30.15F
MOSINEE        LGT RAIN  57  55  94 N3        30.18F
MARSHFIELD     CLOUDY    60  55  83 NE5       30.17F
STEVENS POINT  CLOUDY    55  54  94 CALM      30.18S
WAUPACA        MOCLDY    59  56  90 CALM      30.18R
WAUTOMA        NOT AVBL
WISC RAPIDS    PTCLDY    61  55  81 NE3       30.18S
CAMP DOUGLAS   NOT AVBL
$$

WIZ011>013-019>022-031-037>040-048>050-271100-
NORTHEAST WISCONSIN

CITY           SKY/WX    TMP DP  RH WIND       PRES   REMARKS
ANTIGO         LGT RAIN  55  54  96 CALM      30.18F
STURGEON BAY   MOCLDY    59  52  77 NE3       30.16F
GREEN BAY      CLOUDY    59  55  87 CALM      30.16S
MANITOWOC      NOT AVBL
APPLETON       MOCLDY    59  52  77 N7        30.17S
CLINTONVILLE   MOCLDY    57  54  88 CALM      30.17R
OSHKOSH        CLOUDY    64  58  80 NE12      30.15F
$$

WIZ032>034-041-042-053>061-271100-
SOUTHWEST WISCONSIN

CITY           SKY/WX    TMP DP  RH WIND       PRES   REMARKS
LA CROSSE      CLOUDY    63  58  83 N5        30.16S
SPARTA         MOCLDY    56  55  96 CALM      30.18S
VIROQUA        CLOUDY    60  59  97 CALM      30.17S
BOSCOBEL       CLOUDY    64  60  87 CALM      30.17R
PRAIRIE DU CHI CLEAR     60  57  90 NE3       30.16R
PLATTEVILLE    FAIR      62  59  90 CALM      30.17R
$$

WIZ056-057-062-063-064-067-068-271100-
SOUTH CENTRAL WISCONSIN

CITY           SKY/WX    TMP DP  RH WIND       PRES   REMARKS
BARABOO/DELLS  CLOUDY    62  56  82 CALM      30.15F
LONE ROCK      NOT AVBL
WATERTOWN      CLOUDY    61  59  93 CALM      30.15R
MADISON        MOCLDY    61  58  90 CALM      30.15F
MIDDLETON      CLOUDY    63  61  93 CALM      30.16S
MONROE         PTCLDY    61  59  94 N7        30.15S
JANESVILLE     MOCLDY    64  61  88 CALM      30.14R
$$

WIZ051-052-058>065-066-070>072-271100-
SOUTHEAST WISCONSIN

CITY           SKY/WX    TMP DP  RH WIND       PRES   REMARKS
MILWAUKEE      CLOUDY    65  57  75 N5        30.14R
WAUKESHA       CLOUDY    61  55  82 CALM      30.15S
MILWAUKEE/TIMM CLOUDY    63  55  77 N3        30.14S
RACINE         CLOUDY    65  61  87 NW3       30.15R
BURLINGTON     CLOUDY    60  59  97 CALM      30.14S
KENOSHA        CLOUDY    63  60  90 N6        30.13S
FOND DU LAC    CLOUDY    64  57  78 NE8       30.16S
SHEBOYGAN      CLOUDY    61  58  90 N7        30.15R
WEST BEND      CLOUDY    61  55  82 N5        30.15S
JUNEAU         CLOUDY    61  56  85 N3        30.16S
$$

LSZ147-162-271100-
LAKE SUPERIOR

STATION/POSITION TIME  TEMP    WIND        PRES    WAVE
                       AIR SEA DIR/SP/G            HT/PER
                 (UTC) (F)     (DEG/KT/KT) (MB)    (FT/S)
W MID LAKE BUOY  0850   56 55  280/  6/  6 1021.2S   1
DEVILS ISLAND    0900   58     320/  8/  8 1021.9F
PORT WING        0900   57     200/  4/  7 1022.4S
SAXON HARBOR     0900   57     180/  2/  5 1021.7S
$$

LMZ867-665-643>646-271100-
LAKE MICHIGAN

STATION/POSITION TIME  TEMP    WIND        PRES    WAVE
                       AIR SEA DIR/SP/G            HT/PER
                 (UTC) (F)     (DEG/KT/KT) (MB)    (FT/S)
N MID LAKE BUOY  0850   62 65  350/  8/ 10 1020.9R   1/ 4
NORTHPORT PIER   0900   63      30/  4/  5 1021.0S
SISTER BAY       0811   59        CALM       N/A
ALGOMA LAKESHORE 0823          350/  6/  8   N/A
KEWAUNEE LAKESHO 0900   62     350/  4/  8 1020.1R
SHEBOYGAN LAKESH 0900   64 66  340/ 10/ 11 1020.8R
ATWATER BUOY     0900   67     310/  6/  8 1021.4S
MILWAUKEE LAKESH 0900   67     340/  4/  5   N/A
S MID LAKE BUOY  0850   68 69  360/  2/  2 1019.8F   0
KENOSHA   LAKESH 0900   68     340/  5/  6 1020.0S
$$

TC  - TEMPERATURE IN CELSIUS
VSB - VISIBILITY IN STATUTE MILES
WCI - WIND CHILL INDEX
HX  - HEAT INDEX




USA.gov is the U.S. government's official web portal to all federal, state and local government web resources and services.